Regional Weather Roundup
Issued by NWS

Home | Current Version | Previous Version | Graphics & Text | Print | Product List | Glossary On
Versions: 1 2 3 4 5 6 7 8 9 10 11 12 13 14 15 16 17 18 19 20 21 22 23 24 25 26 27 28 29 30 31 32 33 34 35 36 37 38 39 40 41 42 43 44 45 46 47 48 49 50
356
ASUS43 KOAX 210802
RWRNE

WEATHER ROUNDUP FOR NEBRASKA
NATIONAL WEATHER SERVICE OMAHA NE
200 AM CST SAT JAN 21 2017

NOTES: SATELLITE DATA IS BEING USED TO AUGMENT CLOUD COVER ABOVE
       12000 FEET.
       "FAIR" INDICATES FEW OR NO CLOUDS BELOW 12,000 FEET WITH NO
       SIGNIFICANT WEATHER AND/OR OBSTRUCTIONS TO VISIBILITY.

  * THESE STATIONS DO NOT REPORT WEATHER SUCH AS RAIN...SNOW OR FOG.

NEZ001>004-019>022-054>056-210900-
NEBRASKA PANHANDLE

CITY           SKY/WX    TMP DP  RH WIND       PRES   REMARKS
SCOTTSBLUFF    CLEAR     28  22  78 NW5       29.40S WCI  23
ALLIANCE       CLOUDY    27  25  92 W8        29.37F WCI  19
CHADRON        CLOUDY    34  31  88 W9        29.38S WCI  27
KIMBALL        CLEAR     28  22  79 NW7       29.40S WCI  21
SIDNEY         CLEAR     28  21  75 W9        29.40S WCI  19
$$

NEZ057>060-069>072-079>082-210900-
SOUTHWEST NEBRASKA

CITY           SKY/WX    TMP DP  RH WIND       PRES   REMARKS
NORTH PLATTE   PTCLDY    31  30  96 CALM      29.39F
IMPERIAL       CLEAR     32  30  92 W9        29.42S WCI  24
LEXINGTON      CLOUDY    34  32  92 W5        29.39S WCI  30
MCCOOK         CLEAR     32  31  96 SW7       29.42F WCI  26
OGALLALA       CLEAR     32  31  96 W6        29.40S WCI  26
$$

NEZ005>010-023>029-035>040-094-210900-
NORTH CENTRAL NEBRASKA

CITY           SKY/WX    TMP DP  RH WIND       PRES   REMARKS
VALENTINE      PTCLDY    31  27  85 W7        29.33F WCI  24
AINSWORTH      CLOUDY    32  31  95 W8        29.34R WCI  25
BROKEN BOW     CLOUDY    36  33  89 W8        29.36S WCI  30
O`NEILL        CLOUDY    34  34 100 W5        29.34F WCI  30
ORD            CLOUDY    35  33  92 CALM      29.35S
THEDFORD       MOCLDY    35  34  95 SW8       29.36S WCI  29
$$

NEZ041-046>049-061>064-073>077-083>087-210900-
SOUTH CENTRAL NEBRASKA

CITY           SKY/WX    TMP DP  RH WIND       PRES   REMARKS
GRAND ISLAND   PTCLDY    34  34 100 W8        29.38R WCI  27
AURORA         PTCLDY    34  34 100 SW7       29.38S FOG     WCI  28
HASTINGS       MOCLDY    35  33  92 SW5       29.39S WCI  31
HEBRON         FOG       37  37 100 W6        29.41S VSB 3/4 WCI  33
HOLDREGE       CLOUDY    34  33  96 W7        29.40S WCI  28
KEARNEY *      CLOUDY    34 N/A N/A W7        29.39R WCI  28
YORK           CLOUDY    37  37 100 SW6       29.39R WCI  33
$$

NEZ011>018-030>034-042>045-210900-
NORTHEAST NEBRASKA

CITY           SKY/WX    TMP DP  RH WIND       PRES   REMARKS
NORFOLK        CLOUDY    37  37 100 S7        29.35S FOG     WCI  32
ALBION         CLOUDY   N/A N/A N/A W3        29.35S HAZE
BLAIR          DRZL/FOG  40  39  97 CALM      29.37F VSB 1/4
FREMONT        FOG       39  39 100 CALM      29.39S VSB 1/4
TEKAMAH        FOG       37  36  96 CALM      29.38F VSB 1/4
WAYNE          FOG       37  37  99 S3        29.36F VSB 1/4
$$

NEZ050>053-065>068-078-088>093-210900-
SOUTHEAST NEBRASKA

CITY           SKY/WX    TMP DP  RH WIND       PRES   REMARKS
LINCOLN        FOG       40  40 100 SW6       29.41R VSB 3/4
OMAHA EPPLEY   CLOUDY    40  37  89 S3        29.39S FOG
BEATRICE       FOG       40  40 100 W5        29.40F VSB 1/2
FALLS CITY     CLOUDY    45  44  97 SW7       29.41R FOG
NEBRASKA CITY  FOG       41  41 100 SW7       29.40S VSB 1/2
PLATTSMOUTH    FOG       41  39  93 S7        29.38S VSB 1/2
$$

NEZ044-045-051>053-067-210900-
OMAHA AREA

CITY           SKY/WX    TMP DP  RH WIND       PRES   REMARKS
OMAHA EPPLEY   CLOUDY    40  37  89 S3        29.39S FOG
BLAIR          DRZL/FOG  40  39  97 CALM      29.37F VSB 1/4
FREMONT        FOG       39  39 100 CALM      29.39S VSB 1/4
MILLARD        FOG       42  41  97 CALM      29.38F VSB 1/2
PLATTSMOUTH    FOG       41  39  93 S7        29.38S VSB 1/2
WAHOO          FOG       37  37  98 CALM      29.38S VSB 1/4
$$




USA.gov is the U.S. government's official web portal to all federal, state and local government web resources and services.